[[{"header":{"parameterUnit":"m.s-1","parameterCategory":1,"la1":30.2991,"la2":30.254,"lo1":-89.0895,"lo2":-89.0444,"dy":0.0017,"dx":0.0017,"nx":28,"ny":28,"refTime":"2023-09-15T09:00:00:Z","depth":0,"parameterNumber":2,"parameterNumberName":"U-component_of_WINDS"},"data":[0,0,0,0,0,0,0,0,0,0,0,0,0,0,0,0,0,0,0,0,0,0,0,0,0,0,0,0,0,0,0,0,0,0,0,0,0,0,0,0,0,0,0,0,0,0,0,0,0,0,0,0,0,0,0,0,0,0,1.2171,1.2173,0,1.2323,1.2324,1.2326,1.2382,1.2381,1.2381,1.238,1.2535,1.254,1.2544,0,0,0,0,0,0,0,0,0,0,0,0,0,1.1928,1.1932,1.2171,1.2173,1.2175,1.2322,1.2325,1.2327,1.2382,1.2381,1.2381,1.238,1.2534,1.2539,1.2545,0,0,0,0,0,0,0,0,0,0,0,0,0,1.2052,1.1934,1.2171,1.222,1.2226,1.2322,1.2325,1.2327,1.2382,1.2381,1.238,1.238,1.2532,1.2539,1.2545,1.2603,0,0,1.2566,1.2569,0,0,0,0,0,0,0,0,1.2045,1.2061,1.2211,1.2217,1.2224,1.2333,1.2296,1.242,1.2382,1.2323,1.238,1.2379,1.2468,1.248,1.2511,1.261,1.2617,1.2567,1.2571,1.2574,1.2576,0,0,0,0,0,0,0,1.2036,1.2055,1.2231,1.2213,1.2221,1.2234,1.2251,1.2319,1.2398,1.2328,1.2332,1.235,1.2472,1.2504,1.2515,1.2619,1.2567,1.2573,1.2577,1.258,1.2772,1.2773,0,0,0,0,0,0,1.2019,1.2047,1.2226,1.2236,1.2131,1.2239,1.2258,1.2298,1.2397,1.2412,1.235,1.2352,1.2492,1.2506,1.252,1.2593,1.2574,1.2581,1.2585,1.2771,1.2773,1.2774,0,0,0,0,0,0,1.2014,1.2035,1.222,1.2143,1.2167,1.2244,1.2289,1.2302,1.2334,1.2414,1.2428,1.2368,1.2492,1.251,1.2582,1.2599,1.2584,1.259,1.277,1.2772,1.2773,1.274,0,0,0,0,0,0,1.2007,1.2033,1.2056,1.2143,1.2171,1.2279,1.229,1.2305,1.2346,1.2349,1.2435,1.2449,1.2493,1.2571,1.2588,1.2609,1.2595,1.2769,1.2771,1.2773,1.274,1.274,1.2741,0,0,0,0,0,1.1998,1.2041,1.2057,1.2078,1.2202,1.228,1.2297,1.2347,1.2347,1.237,1.2422,1.2446,1.2595,1.2578,1.2598,1.262,1.2768,1.277,1.2773,1.274,1.274,1.2741,0,0,0,0,0,0,1.1954,1.2053,1.2072,1.2144,1.2203,1.229,1.2321,1.2346,1.2407,1.2407,1.2467,1.2486,1.2552,1.2594,1.2573,1.2681,1.2683,1.2689,1.2651,1.2652,1.2653,1.2641,1.2601,0,0,0,0,0,1.1952,1.2008,1.2092,1.2148,1.2176,1.2243,1.2279,1.2313,1.2377,1.2402,1.2459,1.2519,1.258,1.2619,1.2679,1.2746,1.2765,1.2772,1.2772,1.2772,1.2776,1.2814,1.2818,1.2781,1.2781,1.2781,0,0,1.195,1.2011,1.2043,1.214,1.219,1.2246,1.2264,1.2323,1.2365,1.2411,1.2482,1.2525,1.2597,1.2666,1.2699,1.2703,1.2791,1.2775,1.2774,1.2779,1.2817,1.282,1.2823,1.2782,1.2782,1.2782,0,0,1.1975,1.2027,1.2079,1.2128,1.2203,1.2247,1.2259,1.2342,1.2372,1.2444,1.248,1.253,1.2633,1.2683,1.2721,1.2763,1.2787,1.2781,1.2782,1.2818,1.2821,1.2824,1.2838,1.2842,1.2785,1.2785,1.2785,0,1.1963,1.2049,1.2102,1.2159,1.22,1.2244,1.2296,1.2341,1.2432,1.2459,1.2462,1.2591,1.2643,1.2723,1.2733,1.2763,1.2778,1.2771,1.2816,1.282,1.2823,1.2837,1.2842,1.2784,1.2784,1.2784,1.2784,0,1.203,1.2089,1.2121,1.2207,1.2252,1.2306,1.2367,1.2406,1.2435,1.2478,1.255,1.2613,1.2686,1.2708,1.2738,1.2793,1.2792,1.2805,1.2808,1.2824,1.2838,1.2844,1.2782,1.2782,1.2783,1.2783,0,0,1.2031,1.2145,1.2156,1.2195,1.2281,1.2327,1.2383,1.2454,1.2486,1.2547,1.2594,1.268,1.2691,1.2735,1.277,1.2802,1.2829,1.2811,1.2813,1.2811,1.2893,1.2883,1.2888,1.2846,1.2847,1.2848,1.2887,0,1.2066,1.2168,1.2216,1.2296,1.2351,1.2393,1.2441,1.2499,1.254,1.2592,1.2639,1.2698,1.2709,1.2736,1.2769,1.2819,1.2847,1.2817,1.289,1.2892,1.287,1.2896,1.2886,1.2919,1.2893,1.2894,1.2894,0,1.2121,1.2181,1.2266,1.2344,1.2369,1.2412,1.248,1.253,1.2595,1.2623,1.2671,1.2705,1.2764,1.2763,1.2845,1.2824,1.2857,1.2886,1.2888,1.2897,1.2894,1.2904,1.2931,1.2935,1.2904,1.2903,1.2902,0,1.2112,1.2215,1.2279,1.2311,1.2404,1.2433,1.2473,1.2537,1.2577,1.2637,1.2663,1.2728,1.2764,1.2814,1.2865,1.286,1.2941,1.2945,1.2966,1.2965,1.2981,1.2979,1.3013,1.3003,1.3003,1.3003,1.3003,0,1.2146,1.2196,1.2276,1.2315,1.2372,1.2427,1.2482,1.2525,1.2582,1.263,1.2671,1.2715,1.2779,1.2831,1.2871,1.2932,1.2948,1.2972,1.2982,1.2968,1.2965,1.299,1.2989,1.3004,1.3004,1.3004,1.3003,0,1.2146,1.2201,1.2274,1.2356,1.2377,1.2415,1.2485,1.2525,1.2568,1.2628,1.2645,1.2713,1.2776,1.2832,1.2915,1.2942,1.3004,1.3017,1.2982,1.2987,1.3005,1.3002,1.3055,1.3065,1.3049,1.3049,1.3049,0,1.2164,1.2203,1.2289,1.2324,1.2363,1.2419,1.2459,1.2515,1.2555,1.2632,1.2661,1.2727,1.2783,1.2881,1.2938,1.3002,1.3016,1.303,1.3026,1.301,1.3015,1.3012,1.3016,1.303,1.303,1.3029,1.3029,0,1.2189,1.2214,1.2271,1.2336,1.2383,1.2438,1.2493,1.2519,1.2585,1.2628,1.2693,1.2736,1.2821,1.2885,1.2955,1.2996,1.3023,1.303,1.3038,1.3025,1.3002,1.3014,1.2981,1.3029,1.3029,1.3029,1.3029,1.3029,1.2198,1.2234,1.23,1.2362,1.2409,1.246,1.2501,1.2549,1.2604,1.2677,1.2707,1.2772,1.2836,1.2932,1.2973,1.3025,1.3029,1.3041,1.3044,1.3046,1.3043,1.2994,1.3038,1.3038,1.3038,1.3038,1.3038,0,1.2224,1.2269,1.2324,1.2401,1.2449,1.247,1.2533,1.2571,1.2629,1.2686,1.2739,1.2813,1.2876,1.2937,1.3003,1.3032,1.3046,1.3047,1.3046,1.3054,1.3036,1.3022,1.3035,1.3035,1.3035,1.3035,1.3035,1.3035,1.2244,1.2307,1.2339,1.2426,1.247,1.2535,1.2568,1.2615,1.2661,1.2741,1.2793,1.2833,1.2891,1.2961,1.3019,1.3036,1.3058,1.3055,1.3075,1.3056,1.3056,1.3055,1.3043,1.306,1.306,1.3089,1.3089,1.309]},{"header":{"parameterUnit":"m.s-1","parameterCategory":1,"la1":30.2991,"la2":30.254,"lo1":-89.0895,"lo2":-89.0444,"dy":0.0017,"dx":0.0017,"nx":28,"ny":28,"refTime":"2023-09-15T09:00:00:Z","depth":0,"parameterNumber":3,"parameterNumberName":"V-component_of_WINDS"},"data":[0,0,0,0,0,0,0,0,0,0,0,0,0,0,0,0,0,0,0,0,0,0,0,0,0,0,0,0,0,0,0,0,0,0,0,0,0,0,0,0,0,0,0,0,0,0,0,0,0,0,0,0,0,0,0,0,0,0,3.4542,3.4542,0,3.4484,3.4483,3.4482,3.4432,3.4432,3.4431,3.4431,3.4366,3.4365,3.4364,0,0,0,0,0,0,0,0,0,0,0,0,0,3.4607,3.4606,3.4542,3.4542,3.4541,3.4484,3.4483,3.4482,3.4432,3.4432,3.4431,3.4431,3.4367,3.4365,3.4364,0,0,0,0,0,0,0,0,0,0,0,0,0,3.4567,3.4606,3.4542,3.4509,3.4506,3.4484,3.4483,3.4482,3.4433,3.4432,3.4431,3.443,3.4367,3.4365,3.4364,3.4369,0,0,3.4358,3.4357,0,0,0,0,0,0,0,0,3.4569,3.4564,3.4515,3.4512,3.4508,3.4465,3.4482,3.4444,3.4433,3.446,3.4431,3.443,3.4399,3.4395,3.4385,3.4366,3.4363,3.4358,3.4357,3.4356,3.4355,0,0,0,0,0,0,0,3.4572,3.4567,3.4519,3.4514,3.451,3.4496,3.4489,3.4475,3.4435,3.4458,3.4454,3.4448,3.4397,3.4387,3.4384,3.4362,3.4358,3.4356,3.4355,3.4354,3.4342,3.4343,0,0,0,0,0,0,3.4581,3.4569,3.4521,3.4517,3.4537,3.4496,3.4488,3.4479,3.4435,3.4428,3.4449,3.4446,3.4391,3.4386,3.4381,3.4383,3.4356,3.4354,3.4353,3.4341,3.4342,3.4343,0,0,0,0,0,0,3.4582,3.4577,3.4523,3.4542,3.4534,3.4495,3.4486,3.4478,3.4469,3.4428,3.442,3.4446,3.439,3.4384,3.4372,3.438,3.4353,3.4352,3.434,3.4341,3.4342,3.4388,0,0,0,0,0,0,3.4584,3.4578,3.458,3.4543,3.4534,3.4517,3.4486,3.4478,3.4466,3.4462,3.4424,3.4417,3.4389,3.4375,3.437,3.4377,3.435,3.4339,3.4341,3.4342,3.4386,3.4391,3.4395,0,0,0,0,0,3.4587,3.4594,3.458,3.4575,3.4536,3.4517,3.4512,3.4481,3.4467,3.4468,3.4442,3.4418,3.4381,3.4374,3.4369,3.4375,3.4339,3.434,3.4342,3.4383,3.439,3.4395,0,0,0,0,0,0,3.4632,3.4589,3.4573,3.4569,3.4548,3.4509,3.451,3.4489,3.4469,3.4466,3.4427,3.4419,3.4411,3.4392,3.4386,3.4377,3.4356,3.4357,3.439,3.4395,3.44,3.4404,3.4349,0,0,0,0,0,3.4642,3.4632,3.4594,3.4594,3.4584,3.4549,3.454,3.4518,3.4493,3.4483,3.4456,3.4432,3.4415,3.4404,3.4386,3.4383,3.4373,3.4384,3.4389,3.4393,3.4394,3.4389,3.4394,3.4348,3.4348,3.4348,0,0,3.4662,3.4637,3.4632,3.4603,3.4583,3.4572,3.4542,3.4531,3.4522,3.4481,3.4469,3.4448,3.4419,3.4411,3.4407,3.4395,3.4404,3.4395,3.4399,3.4397,3.4392,3.4396,3.44,3.435,3.4349,3.4349,0,0,3.4691,3.4672,3.467,3.4652,3.4623,3.46,3.46,3.4564,3.455,3.4537,3.4506,3.4494,3.4465,3.4445,3.4431,3.4454,3.443,3.4449,3.4472,3.4469,3.4472,3.4475,3.4482,3.4485,3.445,3.445,3.445,0,3.4719,3.4702,3.4671,3.4663,3.465,3.4614,3.4611,3.4594,3.4561,3.4552,3.454,3.4503,3.4481,3.4468,3.4473,3.4464,3.446,3.4452,3.4475,3.4477,3.448,3.4486,3.4488,3.4452,3.4452,3.4452,3.4452,0,3.4737,3.4726,3.4727,3.4697,3.4685,3.4679,3.4645,3.4636,3.4616,3.4593,3.458,3.4552,3.4528,3.4523,3.4502,3.4507,3.45,3.4482,3.446,3.4487,3.4492,3.4494,3.4456,3.4455,3.4454,3.4454,0,0,3.4792,3.4746,3.4747,3.4733,3.4699,3.4689,3.4681,3.4658,3.4651,3.4629,3.462,3.4597,3.458,3.4564,3.4541,3.4538,3.4557,3.452,3.4519,3.4527,3.4558,3.4571,3.4574,3.4541,3.4542,3.4542,3.456,0,3.4816,3.4801,3.4773,3.4766,3.4754,3.4721,3.4714,3.4692,3.4671,3.4656,3.4632,3.4616,3.4596,3.4586,3.4582,3.4555,3.4562,3.4554,3.4531,3.453,3.4538,3.4577,3.4591,3.4609,3.4562,3.4562,3.4563,0,3.484,3.4822,3.4815,3.4782,3.4776,3.477,3.4747,3.4735,3.4708,3.4693,3.4676,3.4651,3.4639,3.462,3.4603,3.4598,3.4587,3.4572,3.4572,3.4568,3.4547,3.4572,3.4615,3.4617,3.4565,3.4565,3.4565,0,3.488,3.4854,3.4846,3.4835,3.4796,3.4793,3.4776,3.475,3.4738,3.4717,3.4708,3.4686,3.4674,3.4656,3.4625,3.4615,3.461,3.4589,3.4596,3.4597,3.4595,3.4595,3.4635,3.4591,3.4591,3.4591,3.4591,0,3.4908,3.4905,3.4863,3.4858,3.4853,3.482,3.4815,3.4796,3.4772,3.4761,3.4731,3.4721,3.4682,3.4667,3.4643,3.4631,3.4626,3.4612,3.4605,3.4614,3.4615,3.4605,3.4602,3.4591,3.4591,3.4591,3.4591,0,3.4951,3.4923,3.4912,3.4877,3.4868,3.4866,3.4835,3.4828,3.4806,3.4793,3.4788,3.4752,3.4733,3.4701,3.4672,3.4656,3.4648,3.4638,3.4658,3.4653,3.4661,3.466,3.4694,3.4697,3.4652,3.4653,3.4653,0,3.497,3.4967,3.4932,3.4924,3.4909,3.4895,3.4883,3.4851,3.484,3.481,3.4806,3.4785,3.4767,3.4738,3.4708,3.4686,3.4673,3.4687,3.467,3.4678,3.4672,3.4672,3.4671,3.469,3.4691,3.4692,3.4692,0,3.5007,3.4993,3.4978,3.4958,3.4945,3.4927,3.4908,3.4902,3.4865,3.4853,3.4835,3.4821,3.4792,3.4771,3.4745,3.4726,3.4702,3.4698,3.4698,3.4706,3.4717,3.471,3.4667,3.4697,3.4697,3.4696,3.4696,3.4696,3.5037,3.5032,3.5007,3.4991,3.4973,3.4956,3.4948,3.4925,3.4909,3.4885,3.4866,3.4849,3.4821,3.4784,3.4767,3.4751,3.474,3.4741,3.4741,3.4741,3.4744,3.4722,3.4746,3.4746,3.4746,3.4746,3.4746,0,3.5071,3.5053,3.5039,3.5013,3.5,3.4982,3.4959,3.4949,3.4934,3.4912,3.4895,3.4873,3.4852,3.4822,3.4799,3.4792,3.478,3.4787,3.4786,3.4782,3.4755,3.4757,3.4796,3.4796,3.4796,3.4796,3.4796,3.4796,3.5087,3.5078,3.5061,3.5043,3.5024,3.5008,3.4997,3.498,3.4962,3.4939,3.4923,3.4904,3.4878,3.4852,3.4832,3.4824,3.4816,3.4825,3.4813,3.4789,3.4784,3.4779,3.4781,3.4824,3.4824,3.4841,3.4841,3.4841]}]]